This is the latest recevied weather packets stored in our database for station/object EA1FBN. If no packets are shown the sender has not sent any weather packets the latest 10 day(s).
| Time | Temp. | Humidity | Pressure | Rain* | Wind** | Luminosity | Snow |
|---|---|---|---|---|---|---|---|
| 1787736929 | 21.67° C | 52% | 1010.7 hPa | 0 mm | - | - | - |
| 1787736629 | 21.67° C | 53% | 1010.8 hPa | 0 mm | - | - | - |
| 1787736329 | 21.67° C | 54% | 1010.9 hPa | 0 mm | - | - | - |
| 1787736028 | 21.67° C | 55% | 1010.8 hPa | 0 mm | - | - | - |
| 1787735728 | 21.11° C | 57% | 1010.9 hPa | 0 mm | - | - | - |
| 1787735429 | 20.56° C | 58% | 1010.8 hPa | 0 mm | - | - | - |
| 1787735129 | 20.56° C | 58% | 1010.7 hPa | 0.25 mm | - | - | - |
| 1787734829 | 20.56° C | 58% | 1010.7 hPa | 0.25 mm | - | - | - |
| 1787734529 | 20.56° C | 59% | 1010.7 hPa | 0.51 mm | - | - | - |
| 1787734229 | 20° C | 59% | 1010.6 hPa | 0.51 mm | - | - | - |
| 1787733929 | 20° C | 60% | 1010.5 hPa | 0.76 mm | - | - | - |
| 1787733629 | 19.44° C | 61% | 1010.5 hPa | 0.76 mm | - | - | - |
| 1787733329 | 19.44° C | 61% | 1010.3 hPa | 0.76 mm | - | - | - |
| 1787733029 | 19.44° C | 61% | 1010.3 hPa | 0.76 mm | - | - | - |
| 1787732729 | 19.44° C | 61% | 1009.9 hPa | 0.76 mm | - | - | - |
| 1787732429 | 20° C | 62% | 1010.2 hPa | 0.76 mm | - | - | - |
| 1787732129 | 20° C | 62% | 1010.3 hPa | 0.76 mm | - | - | - |
| 1787731829 | 19.44° C | 62% | 1010.4 hPa | 0.76 mm | - | - | - |
| 1787731529 | 19.44° C | 62% | 1010.4 hPa | 0.51 mm | - | - | - |
| 1787731229 | 19.44° C | 61% | 1010.6 hPa | 0.51 mm | - | - | - |
| 1787730929 | 18.89° C | 66% | 1010.9 hPa | 0.25 mm | - | - | - |
| 1787730629 | 18.33° C | 67% | 1011.1 hPa | 0.25 mm | - | - | - |
| 1787730329 | 17.78° C | 68% | 1011.3 hPa | 0 mm | - | - | - |
| 1787730029 | 17.22° C | 68% | 1011.3 hPa | 0 mm | - | - | - |
| 1787729729 | 16.67° C | 69% | 1011.3 hPa | 0 mm | - | - | - |
* Rain latest hour (hover to see other rain measurements)
** Current wind speed in m/s (hover to see current wind gust speed)